This is the latest recevied weather packets stored in our database for station/object VE6KEE-13. If no packets are shown the sender has not sent any weather packets the latest 10 day(s).
| Time | Temp. | Humidity | Pressure | Rain* | Wind** | Luminosity | Snow |
|---|---|---|---|---|---|---|---|
| 1777470201 | 0.56° C | 52% | 1024.9 hPa | 0 mm | - | - | - |
| 1777469301 | 0° C | 53% | 1024.9 hPa | 0 mm | - | - | - |
| 1777468400 | -0.56° C | 52% | 1024.8 hPa | 0 mm | - | - | - |
| 1777467505 | -0.56° C | 52% | 1024.7 hPa | 0 mm | - | - | - |
| 1777466598 | -0.56° C | 52% | 1024.6 hPa | 0 mm | - | - | - |
| 1777465698 | -0.56° C | 52% | 1024.6 hPa | 0 mm | - | - | - |
| 1777464797 | -0.56° C | 51% | 1024.6 hPa | 0 mm | - | - | - |
| 1777463896 | -0.56° C | 51% | 1024.6 hPa | 0 mm | - | - | - |
| 1777462996 | -0.56° C | 51% | 1024.5 hPa | 0 mm | - | - | - |
| 1777462100 | -0.56° C | 50% | 1024.2 hPa | 0 mm | - | - | - |
| 1777461194 | 0° C | 50% | 1024.1 hPa | 0 mm | - | - | - |
| 1777460293 | 0° C | 50% | 1024.1 hPa | 0 mm | - | - | - |
| 1777459393 | 0° C | 50% | 1023.9 hPa | 0 mm | - | - | - |
| 1777458492 | 0° C | 49% | 1023.7 hPa | 0 mm | - | - | - |
| 1777457591 | 0.56° C | 49% | 1023.6 hPa | 0 mm | - | - | - |
| 1777456698 | 0.56° C | 49% | 1023.4 hPa | 0 mm | - | - | - |
| 1777455793 | 0.56° C | 48% | 1023.3 hPa | 0 mm | - | - | - |
| 1777454888 | 1.11° C | 47% | 1023.3 hPa | 0 mm | - | - | - |
| 1777453988 | 1.11° C | 47% | 1023.2 hPa | 0 mm | - | - | - |
| 1777453093 | 1.67° C | 47% | 1023.1 hPa | 0 mm | - | - | - |
| 1777452187 | 1.67° C | 46% | 1023.2 hPa | 0 mm | - | - | - |
| 1777451292 | 1.67° C | 46% | 1023.1 hPa | 0 mm | - | - | - |
| 1777450385 | 2.22° C | 46% | 1022.8 hPa | 0 mm | - | - | - |
| 1777449484 | 2.22° C | 45% | 1022.8 hPa | 0 mm | - | - | - |
| 1777448583 | 2.22° C | 45% | 1022.8 hPa | 0 mm | - | - | - |
* Rain since midnight (hover to see other rain measurements)
** Current wind speed in m/s (hover to see current wind gust speed)